Back to catalog

STARLINK-4726

AliveCommunicationsVLEO
NORAD 53802·PAYLOAD·🇺🇸 United States

Launched Sep 11, 2022 from Cape Canaveral Space Force Station

Loading…

Next Passes (next 24 hours)

TLE

FreshSource: CelesTrak SupGP

Epoch: Sep 15, 2026, 01:22 UTC

1 53802C 22111AF  26258.05743056  .00049147  00000+0  14521-2 0  2585
2 53802  53.1577 118.8769 0001362  79.2808 196.5732 15.34364421    11

Track STARLINK-4726 in real time with AllMySat

Download on the App Store